Hourly Data Report for December 16, 2017

All times are specified in Local Standard Time (LST). Add 1 hour to adjust for Daylight Saving Time where and when it is observed.

GRANBY
QUEBEC

45°22'22.000" N
72°46'26.000" W
86.00 m
7022802
MGB

Related Data

No related data is available for this station

Download Data

Hourly Data (December 2017)
Hourly Data Report for December 16, 2017
Temp Definition
°C
Dew Point Temp Definition
°C
Rel Hum Definition
%
Wind Dir Definition
10's deg

Wind Spd Definition
km/h
Visibility Definition
km
Stn Press Definition
kPa
Hmdx Definition


Wind Chill Definition


Weather Definition


TIME
00:00 -8.6 -9.8 91 23 1   99.78   -9 LegendNANA
01:00 -9.2 -10.2 92 0 1   99.74   -10 LegendNANA
02:00 -11.2 -12.3 92   0   99.76     LegendNANA
03:00 -12.7 -14.0 90 1 2   99.73   -14 LegendNANA
04:00 -12.7 -14.0 90 1 1   99.73   -13 LegendNANA
05:00 -13.2 -14.4 90 1 2   99.75   -15 LegendNANA
06:00 -12.5 -13.8 90 2 2   99.75   -14 LegendNANA
07:00 -12.3 -13.7 90 1 1   99.78   -13 LegendNANA
08:00 -11.7 -13.1 89 0 1   99.85   -12 LegendNANA
09:00 -11.6 -13.4 87 26 3   99.93   -13 LegendNANA
10:00 -10.7 -12.4 87 21 4   99.99   -13 LegendNANA
11:00 -10.5 -12.6 85 26 6   100.01   -14 LegendNANA
12:00 -10.2 -12.7 82 26 6   100.06   -14 LegendNANA
13:00 -9.5 -12.5 79 24 6   100.08   -13 LegendNANA
14:00 -10.5 -13.2 80 24 8   100.18   -15 LegendNANA
15:00 -10.6 -13.0 82 27 7   100.34   -15 LegendNANA
16:00 -11.3 -13.4 84 24 3   100.48   -13 LegendNANA
17:00 -13.7 -15.1 89 0 1   100.61   -14 LegendNANA
18:00 -12.7 -13.9 91 19 3   100.71   -15 LegendNANA
19:00 -12.9 -14.1 90 21 3   100.81   -15 LegendNANA
20:00 -11.7 -12.7 92 23 4   100.94   -14 LegendNANA
21:00 -10.8 -12.9 84 24 4   101.04   -13 LegendNANA
22:00 -10.7 -12.5 87 23 3   101.13   -13 LegendNANA
23:00 -10.5 -12.7 84 24 5   101.17   -14 LegendNANA

Notes on Data Quality.

Legend

  • E = Estimated
  • M = Missing
  • NA = Not Available
  • ‡ = Partner data that is not subject to review by the National Climate Archives
Date modified: